TIME,DELAY(SENSOR),PRES,T(CTD),SAL,OXYGEN,RAWTEMP,T(OPTODE),TCPHASE,TURBIDITY,TURBIDITY_GAIN,FLUOR,BETA,CDOM,ED411.5,ED443.8,ED489.6,PAR,COMP,TILT,TILTY(TILT),CHECK
1341183015,6466,181.1799926757812500,5.3178000450134280,35.0008010864257800,364.8562011718750000,642.3928833007812000,5.2970237731933590,32.1513404846191400,15,3,50,122,62,2147639702,2147393224,2147283872,2148322371,2267,0,-4,49903
1341183076,6467,177.6600036621093800,5.3263001441955570,35.0007019042968750,363.1577148437500000,642.1129150390625000,5.3061051368713380,32.1997795104980500,16,3,49,123,62,2147636397,2147391126,2147283835,2148323551,2005,0,-4,61200
1341183137,6467,174.1199951171875000,5.3291001319885250,35.0008010864257800,362.6303100585937500,642.0222167968750000,5.3090419769287110,32.2150802612304700,16,3,50,119,62,2147637700,2147394130,2147283903,2148322522,1776,0,-4,20860
1341183198,6468,170.6199951171875000,5.3302001953125000,35.0004997253418000,362.3089904785156000,641.9790039062500000,5.3104438781738280,32.2247505187988300,16,3,50,115,62,2147638253,2147392328,2147284749,2148322152,1546,0,-4,26079
1341183259,6467,167.1499938964843800,5.3354001045227050,35.0012016296386700,362.1458129882812500,641.8281250000000000,5.3153319358825680,32.2271308898925800,16,3,49,115,62,2147639200,2147394193,2147283331,2148321266,1333,0,-4,18529
1341183324,6467,163.5299987792968800,5.3403000831604000,35.0013999938964840,362.0976867675781000,641.6685180664062000,5.3205070495605470,32.2259902954101560,16,3,50,126,60,2147640465,2147392483,2147285160,2148321215,1122,0,-4,38730
1341183385,6468,160.1499938964843800,5.3456001281738280,35.0018005371093750,362.2060852050781000,641.5097045898438000,5.3256549835205080,32.2196311950683600,16,3,50,121,62,2147638778,2147393882,2147284803,2148316905,835,0,-4,306
1341183446,6468,156.8300018310547000,5.3516998291015625,35.0018997192382800,362.2921142578125000,641.3286743164062000,5.3315200805664060,32.2135696411132800,12,3,50,130,61,2147637325,2147393700,2147282870,2148318486,396,0,-4,10011
1341183507,6468,153.6000061035156200,5.3562998771667480,35.0021018981933600,362.2820129394531000,641.1732177734375000,5.3365612030029300,32.2112998962402340,12,3,50,130,62,2147639423,2147396978,2147286408,2148319674,213,0,-4,28498
1341183568,6467,150.4199981689453000,5.3650999069213870,35.0026016235351560,362.0262145996094000,640.9127197265625000,5.3450012207031250,32.2146301269531250,13,3,50,120,61,2147638848,2147392483,2147285960,2148322719,3384,0,-4,58033
1341183631,6469,147.1399993896484400,5.3731999397277830,35.0023002624511700,362.0563964843750000,640.6868286132812000,5.3523221015930180,32.2098197937011700,16,3,49,119,62,2147639660,2147393046,2147283592,2148319469,3156,0,-4,55940
1341183692,6467,144.0200042724609400,5.3766999244689940,35.0031013488769500,361.9753112792969000,640.5360717773438000,5.3572039604187010,32.2097396850585940,15,3,50,122,62,2147637654,2147391336,2147289521,2148322728,3012,0,-4,13288
1341183755,6469,140.7899932861328000,5.3864998817443850,35.0037994384765600,361.6047058105469000,640.2396240234375000,5.3668122291564940,32.2160301208496100,12,3,50,117,62,2147639158,2147395039,2147286920,2148319981,2817,0,-4,28154
1341183816,6469,137.6600036621093800,5.3917999267578125,35.0035018920898440,361.6380004882812500,640.0556030273438000,5.3727741241455080,32.2119102478027340,13,3,50,122,62,2147634787,2147394892,2147286316,2148319849,2574,0,-4,2341
1341183879,6469,134.4499969482422000,5.4000000953674320,35.0037994384765600,361.1701965332031000,639.8187866210938000,5.3804450035095215,32.2227096557617200,16,3,50,122,61,2147640803,2147392411,2147287542,2148320040,2422,0,-4,62886
1341183940,6467,131.3899993896484400,5.4064998626708980,35.0038986206054700,360.9606933593750000,639.6030273437500000,5.3874340057373050,32.2254714965820300,202,3,50,123,61,2147638034,2147393539,2147287492,2148320895,2235,0,-4,25819
1341184003,6467,128.2599945068359400,5.4162998199462890,35.0040016174316400,360.4363098144531000,639.2927246093750000,5.3974838256835940,32.2367095947265600,40,3,50,123,62,2147639601,2147395885,2147288465,2148319912,2041,0,-4,4996
1341184064,6468,125.2600021362304700,5.4369001388549805,35.0045013427734400,360.0668945312500000,638.7122802734375000,5.4162831306457520,32.2384681701660160,17,3,50,128,62,2147639204,2147394445,2147288923,2148322313,1917,0,-4,34953
1341184127,6467,122.1999969482421900,5.4408001899719240,35.0042991638183600,359.9046020507812500,638.5399169921875000,5.4218640327453610,32.2407493591308600,15,3,51,123,62,2147640424,2147393421,2147285280,2148320443,1739,0,-4,15954
1341184188,6468,119.2699966430664000,5.4616999626159670,35.0046005249023440,359.6079101562500000,637.9182128906250000,5.4419941902160645,32.2389297485351560,15,3,51,122,62,2147641658,2147393343,2147289448,2148322674,1581,0,-4,9161
1341184251,6467,116.2600021362304700,5.4818000793457030,35.0052986145019500,359.3192138671875000,637.3585815429688000,5.4601058959960940,32.2383918762207000,16,3,52,118,62,2147638152,2147392237,2147292525,2148318911,1280,0,-4,19917
1341184312,6467,113.4199981689453100,5.5015997886657715,35.0059013366699200,359.0534057617187500,636.7092285156250000,5.4811248779296875,32.2357101440429700,20,3,53,132,62,2147640164,2147394811,2147292332,2148321211,1135,0,-4,50842
1341184375,6469,110.5000000000000000,5.5215001106262210,35.0063018798828100,358.7721862792969000,636.0892944335938000,5.5011830329895020,32.2335700988769500,13,3,52,123,62,2147637960,2147394952,2147291405,2148322916,843,0,-4,24384
1341184436,6468,107.7699966430664000,5.5464000701904300,35.0060005187988300,358.8370971679687500,635.3759765625000000,5.5242562294006350,32.2192115783691400,67,3,52,133,61,2147637562,2147395464,2147294682,2148321092,728,0,-4,39044
1341184499,6469,104.9700012207031200,5.5812001228332520,35.0060005187988300,359.1026000976562500,634.3339843750000000,5.5579590797424320,32.1921310424804700,16,3,54,126,61,2147636813,2147393654,2147293759,2148322962,144,0,-4,48062
1341184560,6469,102.3000030517578100,5.6189999580383300,35.0050010681152340,359.4926147460937500,633.1942138671875000,5.5948071479797360,32.1596488952636700,16,3,56,130,62,2147636461,2147395364,2147296593,2148321352,3300,0,-4,31985
1341184623,6466,99.5299987792968800,5.6465001106262210,35.0037002563476560,360.1953125000000000,632.2719726562500000,5.6246128082275390,32.1210594177246100,18,3,54,139,61,2147635807,2147394834,2147295318,2148323172,3182,0,-4,60087
1341184684,6468,96.8199996948242200,5.6870999336242680,35.0022010803222660,361.2565002441406000,631.1895141601562000,5.6595859527587890,32.0680694580078100,14,3,56,138,61,2147638235,2147394578,2147296662,2148320822,2661,0,-4,47655
1341184747,6466,94.0999984741211000,5.7104997634887695,35.0023002624511700,362.4808044433594000,630.2293701171875000,5.6905961036682130,32.0125007629394500,16,3,58,145,62,2147636922,2147395825,2147297883,2148318358,2636,0,-4,46086
1341184808,6466,91.4800033569336000,5.7423000335693360,35.0013999938964840,363.6109924316406000,629.3447265625000000,5.7191638946533200,31.9613094329834000,16,3,58,154,62,2147637320,2147396621,2147301860,2148323396,2737,0,-4,21823
1341184871,6468,88.7300033569336000,5.7621998786926270,35.0026016235351560,364.5906982421875000,628.6613159179688000,5.7412238121032715,31.9182701110839840,15,3,60,211,61,2147637769,2147398591,2147301933,2148322395,2533,0,-4,7615
1341184932,6469,85.9700012207031200,5.7859001159667970,35.0015983581543000,365.6691894531250000,627.9708862304688000,5.7635040283203125,31.8726196289062500,19,3,62,184,62,2147638513,2147396241,2147302966,2148321732,2161,0,-4,16116
1341184995,6469,83.0899963378906200,5.8396000862121580,35.0015983581543000,366.4407958984375000,626.3826293945312000,5.8147449493408200,31.8209705352783200,18,3,63,149,60,2147635862,2147398125,2147303744,2148320475,2077,0,-4,3203
1341185056,6467,80.3000030517578100,5.8689999580383300,34.9995002746582000,367.7983093261719000,625.2357788085938000,5.8517270088195800,31.7586097717285160,16,3,68,174,62,2147637183,2147395994,2147307725,2148325787,2081,0,-4,61789
1341185119,6467,77.4899978637695300,5.8951001167297360,35.0005989074707000,369.1874084472656000,624.5131835937500000,5.8750228881835940,31.7029495239257800,23,3,70,144,62,2147640612,2147397120,2147307250,2148324611,1809,0,-4,36551
1341185180,6467,74.6999969482421900,5.9296998977661130,35.0021018981933600,369.8345947265625000,623.6317749023438000,5.9034309387207030,31.6679096221923830,17,3,65,149,60,2147640918,2147399313,2147313887,2148327190,1430,0,-4,31588
1341185243,6467,71.8099975585937500,5.9598999023437500,35.0008010864257800,370.4495849609375000,622.6497802734375000,5.9350719451904300,31.6319694519042970,19,3,67,160,61,2147638600,2147399743,2147317407,2148324360,1144,0,-4,28594
1341185304,6469,68.9899978637695300,5.9684000015258790,35.0005989074707000,371.4124145507812500,622.2493896484375000,5.9479727745056150,31.5952796936035160,21,3,70,168,62,2147640649,2147400927,2147321696,2148325581,890,0,-4,31183
1341185367,6468,66.1200027465820300,5.9798998832702640,34.9994010925293000,372.1021118164062500,621.8796997070312000,5.9598789215087890,31.5676708221435550,17,3,72,162,62,2147641883,2147404438,2147328932,2148328246,630,0,-4,55486
1341185428,6468,63.4799995422363300,5.9928998947143555,34.9986991882324200,372.6958007812500000,621.4780273437500000,5.9728178977966310,31.5427608489990230,17,3,76,180,62,2147641787,2147405677,2147336648,2148325992,474,0,-4,48598
1341185491,6467,60.8800010681152340,6.0138001441955570,34.9991989135742200,372.6813049316406000,620.7529296875000000,5.9961638450622560,31.5308208465576170,19,3,80,156,61,2147641887,2147408114,2147341937,2148330097,3562,0,-4,44879
1341185552,6467,58.5800018310546900,6.0369000434875490,35.0008010864257800,372.3594055175781000,620.1300048828125000,6.0162181854248050,31.5298500061035160,17,3,82,239,62,2147645082,2147410843,2147345334,2148330774,3504,0,-4,61048
1341185642,6468,54.7700004577636700,6.0718002319335940,35.0007019042968750,371.6216125488281000,618.9216918945312000,6.0551071166992190,31.5318603515625000,20,3,91,181,62,2147646056,2147418102,2147355240,2148332411,3224,0,-4,36504
1341185703,6468,51.5000000000000000,6.1048002243041990,35.0009002685546900,371.2034912109375000,618.0065917968750000,6.0845489501953125,31.5291404724121100,18,3,95,213,62,2147645366,2147418148,2147366655,2148337187,3123,0,-4,10889
1341185766,6468,48.1800003051757800,6.2053999900817870,34.9981994628906250,369.5351867675781000,614.1815795898438000,6.2075209617614750,31.5154399871826170,26,3,112,208,64,2147648278,2147419268,2147371258,2148340506,2774,0,-4,36062
1341185827,6469,45.1300010681152340,6.3579001426696780,34.9945983886718750,369.9450073242187500,610.3599853515625000,6.3302421569824220,31.4377708435058600,27,3,155,279,64,2147652484,2147428443,2147383779,2148343688,2278,0,-4,15190
1341185890,6469,42.1300010681152340,6.5507001876831055,34.9905014038085940,372.0250854492187500,604.2199707031250000,6.5271129608154300,31.2705001831054700,46,3,256,347,64,2147657411,2147435492,2147405352,2148348950,1861,0,-4,22517
1341185951,6505,39.2200012207031250,6.8200001716613770,34.9850997924804700,376.7803039550781000,596.3181762695312000,6.7799358367919920,30.9951496124267580,56,3,384,425,64,2147668397,2147448539,2147432291,2148358093,1800,0,-4,37750
1341186014,6468,36.3199996948242200,6.9787998199462890,34.9855003356933600,379.8324890136719000,591.1245727539062000,6.9457869529724120,30.8183002471923830,84,3,453,439,64,2147680831,2147474450,2147486120,2148371857,1354,0,-4,24904
1341186075,6471,33.4000015258789060,7.1571002006530760,34.9832000732421900,383.7431030273437500,585.3419189453125000,7.1301569938659670,30.6085891723632800,78,3,565,567,64,2147706275,2147521471,2147565860,2148392937,1430,0,-4,16673
1341186138,6468,30.7000007629394530,7.2690000534057620,34.9824981689453100,390.2309875488281000,581.6151123046875000,7.2488141059875490,30.3602008819580080,94,3,604,645,64,2147747181,2147575039,2147659116,2148421855,1385,0,-4,36414
1341186199,6470,28.3299999237060550,7.4011001586914060,34.9808006286621100,394.9617004394531000,577.5808715820312000,7.3771171569824220,30.1608390808105470,117,3,570,766,63,2147810866,2147667424,2147791433,2148459606,1253,0,-4,23678
1341186288,6470,24.7099990844726560,7.7884001731872560,34.9739990234375000,401.7666015625000000,565.2672729492188000,7.7678380012512210,29.7753906250000000,117,3,537,906,62,2147987423,2147890989,2148080844,2148557362,76,0,-4,59137
1341186349,6472,21.6299991607666000,8.0473003387451170,34.9719009399414060,408.0257873535156000,557.5435791015625000,8.0122451782226560,29.4840393066406250,129,3,507,889,62,2148215931,2148157170,2148396022,2148662550,3204,0,-4,2085
1341186412,6469,18.2800006866455080,8.7877998352050780,34.9669990539550800,407.7211914062500000,535.0820922851562000,8.7201881408691400,29.1478004455566400,109,3,439,662,59,2148585238,2148573371,2148849841,2148836520,3261,0,-5,20159
1341186473,6469,14.8599996566772460,9.1563997268676760,34.9737014770507800,408.3664855957031000,520.5278930664062000,9.1767663955688480,28.9120597839355470,103,3,423,642,60,2149028045,2149055080,2149364091,2149037988,3360,0,-5,18437
1341186536,6470,11.5900001525878900,10.2229995727539060,34.9780998229980500,394.6814880371094000,487.7474060058594000,10.1994104385375980,28.8022403717041000,99,3,305,650,58,2149430061,2149485819,2149790120,2149228323,2891,0,-3,28031
1341186597,6470,10.1099996566772460,10.8368997573852540,34.9831008911132800,377.4146118164062500,468.8801879882812500,10.7846899032592770,29.0173797607421880,92,3,259,598,57,2149579286,2149636063,2149931542,2149296859,2745,2,-6,21666
1341186691,6470,8.1499996185302730,10.9229001998901370,34.9888992309570300,368.5893859863281000,464.3175964355469000,10.9258899688720700,29.2103099822998050,87,3,242,651,57,2149992250,2150068470,2150341316,2149520525,2831,2,-3,258
1341186746,6470,5.8600001335144040,11.1739997863769530,34.9917984008789060,365.2204895019531000,457.3942871093750000,11.1399097442626950,29.2116203308105470,87,3,230,625,58,2150447167,2150548790,2150797919,2149804680,2848,-4,-3,59569
1341186812,6468,2.9400000572204590,11.4542999267578120,34.9864997863769500,363.0747070312500000,447.2840881347656000,11.4519300460815430,29.1323699951171880,91,3,232,590,58,2151140337,2151227455,2151417320,2150413156,1032,5,-1,24393
1341186871,6467,0.3100000023841858,0.0000000000000000,0.0000000000000000,363.0150146484375000,446.3494873046875000,11.4807500839233400,29.1209297180175780,93,3,241,536,58,2151554537,2151637572,2151788397,2150960790,2191,13,5,60713
1341186906,6468,0.1000000014901161,0.0000000000000000,0.0000000000000000,362.6279907226562500,446.8322143554687500,11.4658699035644530,29.1392898559570300,90,3,239,585,57,2151628433,2151710953,2151862092,2151187753,2358,-5,-3,12956
